Ardmore, OK

10:42 PM CDT on March 26, 2017 (GMT -0500)
Ardmore Municipal

Weather History for KADM - January, 2012

Change the Weather History Date:

Thursday, January 19, 2012

  Actual Average Record
Temperature  
Mean Temperature 47 °F -  
Max Temperature 64 °F 51 °F 73 °F (1999)
Min Temperature 30 °F 32 °F 17 °F (2008)
Degree Days  
Heating Degree Days 18    
Moisture  
Dew Point 32 °F    
Average Humidity 73    
Maximum Humidity 87    
Minimum Humidity 37    
Precipitation  
Precipitation 0.00 in - - ()
Sea Level Pressure  
Sea Level Pressure 29.87 in    
Wind  
Wind Speed 4 mph (East)    
Max Wind Speed 8 mph    
Max Gust Speed -    
Visibility 10 miles    
Events      
Averages and records for this station are not official NWS values.
T = Trace of Precipitation, MM = Missing Value Source: NWS Daily Summary

Daily Weather History Graph

Daily Weather History Graph

Search for Another Location

Airport or City:

Trip Planner

Search our weather history database for the weather conditions in past years. The results will help you decide how hot, cold, wet, or windy it might be!

Date:

Astronomy

Jan. 19, 2012 Rise Set
Actual Time 7:32 AM CST 5:44 PM CST
Civil Twilight 7:05 AM CST 6:11 PM CST
Nautical Twilight 6:35 AM CST 6:42 PM CST
Astronomical Twilight 6:05 AM CST 7:12 PM CST
Moon 4:07 AM CST (1/19) 2:20 PM CST (1/19)
Length of Visible Light 11h 05m
Length of Day
10h 11m
Waning Crescent, 15% of the Moon is Illuminated
Jan 19
Waning Crescent
Jan 23
New
Jan 30
First Quarter
Feb 7
Full
Feb 14
Last Quarter

Hourly Weather History & Observations

Time (CST) Temp. Windchill Dew Point Humidity Pressure Visibility Wind Dir Wind Speed Gust Speed Precip Events Conditions
12:15 AM 32.0 °F 27.5 °F 28.4 °F 87% 29.97 in 10.0 mi East 4.6 mph - N/A   Clear
12:35 AM 32.0 °F 27.5 °F 28.4 °F 87% 29.96 in 10.0 mi ESE 4.6 mph - N/A   Clear
12:55 AM 32.0 °F - 28.4 °F 87% 29.94 in 10.0 mi Calm Calm - N/A   Clear
1:15 AM 32.0 °F - 28.4 °F 87% 29.93 in 10.0 mi Calm Calm - N/A   Clear
1:35 AM 33.8 °F 29.6 °F 30.2 °F 87% 29.91 in 10.0 mi ESE 4.6 mph - N/A   Clear
1:55 AM 33.8 °F - 28.4 °F 81% 29.90 in 10.0 mi Calm Calm - N/A   Clear
2:15 AM 33.8 °F 30.8 °F 30.2 °F 87% 29.89 in 10.0 mi ESE 3.5 mph - N/A   Clear
2:35 AM 33.8 °F 28.6 °F 30.2 °F 87% 29.87 in 10.0 mi East 5.8 mph - N/A   Clear
2:55 AM 33.8 °F 27.7 °F 30.2 °F 87% 29.87 in 10.0 mi East 6.9 mph - N/A   Clear
3:15 AM 35.6 °F 29.9 °F 30.2 °F 81% 29.87 in 10.0 mi East 6.9 mph - N/A   Clear
3:35 AM 35.6 °F 29.9 °F 30.2 °F 81% 29.85 in 10.0 mi East 6.9 mph - N/A   Clear
3:55 AM 35.6 °F 31.7 °F 30.2 °F 81% 29.84 in 10.0 mi East 4.6 mph - N/A   Clear
4:15 AM 35.6 °F 30.7 °F 30.2 °F 81% 29.83 in 10.0 mi ESE 5.8 mph - N/A   Clear
4:35 AM 35.6 °F - 30.2 °F 81% 29.83 in 10.0 mi Calm Calm - N/A   Clear
4:55 AM 35.6 °F 30.7 °F 30.2 °F 81% 29.82 in 10.0 mi ESE 5.8 mph - N/A   Clear
5:15 AM 35.6 °F 31.7 °F 30.2 °F 81% 29.82 in 10.0 mi ESE 4.6 mph - N/A   Clear
5:35 AM 35.6 °F 31.7 °F 30.2 °F 81% 29.82 in 10.0 mi ESE 4.6 mph - N/A   Clear
5:55 AM 33.8 °F - 30.2 °F 87% 29.81 in 10.0 mi Calm Calm - N/A   Clear
7:55 AM 30.2 °F - 26.6 °F 86% 29.82 in 10.0 mi Calm Calm - N/A   Clear
9:55 AM 44.6 °F - 35.6 °F 71% - - North - - N/A   Clear
11:55 AM 53.6 °F - 37.4 °F 54% 29.85 in 10.0 mi Calm Calm - N/A   Clear
12:55 PM 59.0 °F - 37.4 °F 45% 29.85 in 10.0 mi Calm Calm - N/A   Clear
1:55 PM 62.6 °F - 35.6 °F 37% 29.84 in 10.0 mi North 3.5 mph - N/A   Clear
4:55 PM 64.4 °F - 37.4 °F 37% 29.85 in 10.0 mi NNE 4.6 mph - N/A   Clear
6:55 PM 53.6 °F - 35.6 °F 51% 29.89 in 10.0 mi East 4.6 mph - N/A   Clear
9:15 PM 42.8 °F 40.1 °F 33.8 °F 70% 29.89 in 10.0 mi ENE 4.6 mph - N/A   Clear
9:35 PM 42.8 °F - 33.8 °F 70% 29.90 in 10.0 mi Calm Calm - N/A   Clear
9:55 PM 42.8 °F 40.1 °F 33.8 °F 70% 29.90 in 10.0 mi North 4.6 mph - N/A   Clear
10:15 PM 44.6 °F 40.2 °F 33.8 °F 66% 29.90 in 10.0 mi NNE 8.1 mph - N/A   Clear
10:35 PM 44.6 °F 40.2 °F 33.8 °F 66% 29.89 in 10.0 mi NE 8.1 mph - N/A   Clear
10:55 PM 46.4 °F 43.5 °F 33.8 °F 62% 29.88 in 10.0 mi ENE 5.8 mph - N/A   Clear
11:15 PM 44.6 °F - 32.0 °F 61% 29.88 in 10.0 mi Calm Calm - N/A   Clear
11:35 PM 44.6 °F 43.1 °F 32.0 °F 61% 29.88 in 10.0 mi East 3.5 mph - N/A   Clear
11:55 PM 44.6 °F 43.1 °F 32.0 °F 61% 29.88 in 10.0 mi East 3.5 mph - N/A   Clear